THK374 LEMD-LPPR

Flight info

Callsign THK374
Flight time 1h 12m
Altitude 30000
Route BARDI DCT RIVRO DCT PESUL
Aircraft A400/H-SDE2E3FGHIJ4J5M1RWXY/LB1D1

Departure

Time 2026-05-04 16:31
Airport Adolfo Suárez Madrid–Barajas Airport (LEMD)

Arrival

Time 2026-05-04 17:44
Airport Francisco de Sá Carneiro Airport (LPPR)
Time Latitude Longitude Altitude Speed Heading
2026-05-04 16:14 40.47218 -3.56832 1979 ft 0 kts 233°
2026-05-04 16:19 40.47209 -3.56862 1979 ft 6 kts 271°
2026-05-04 16:20 40.47459 -3.56821 1981 ft 20 kts 321°
2026-05-04 16:20 40.47762 -3.57137 1986 ft 34 kts 322°
2026-05-04 16:21 40.48395 -3.57768 1997 ft 35 kts 326°
2026-05-04 16:22 40.48832 -3.57932 1966 ft 33 kts 11°
2026-05-04 16:22 40.49216 -3.57799 1937 ft 14 kts 88°
2026-05-04 16:23 40.49159 -3.57426 1933 ft 13 kts 136°
2026-05-04 16:24 40.48912 -3.56887 1960 ft 26 kts 114°
2026-05-04 16:25 40.48960 -3.56276 1977 ft 33 kts 24°
2026-05-04 16:26 40.49459 -3.56177 1987 ft 14 kts 81°
2026-05-04 16:26 40.49499 -3.55850 1998 ft 0 kts 64°
2026-05-04 16:27 40.49478 -3.55903 1999 ft 0 kts 58°
2026-05-04 16:30 40.49496 -3.55817 1998 ft 13 kts 98°
2026-05-04 16:31 40.48772 -3.55060 1992 ft 171 kts 144°
2026-05-04 16:31 40.44802 -3.50994 3601 ft 279 kts 143°
2026-05-04 16:32 40.40519 -3.46716 8586 ft 248 kts 143°
2026-05-04 16:33 40.37096 -3.44939 9873 ft 284 kts 182°
2026-05-04 16:33 40.33927 -3.47663 9999 ft 288 kts 246°
2026-05-04 16:34 40.33811 -3.52856 9997 ft 297 kts 278°
2026-05-04 16:34 40.34114 -3.55636 10338 ft 319 kts 278°
2026-05-04 16:35 40.34876 -3.64240 13883 ft 317 kts 276°
2026-05-04 16:35 40.35510 -3.73121 16840 ft 336 kts 275°
2026-05-04 16:36 40.35720 -3.76196 17817 ft 341 kts 275°
2026-05-04 16:36 40.36147 -3.82548 19267 ft 365 kts 275°
2026-05-04 16:37 40.36615 -3.89541 19827 ft 396 kts 275°
2026-05-04 16:37 40.36896 -3.93086 20511 ft 396 kts 276°
2026-05-04 16:37 40.37597 -4.00190 22346 ft 385 kts 278°
2026-05-04 16:38 40.38323 -4.07029 24513 ft 372 kts 278°
2026-05-04 16:39 40.39342 -4.16841 27720 ft 354 kts 277°
2026-05-04 16:39 40.39979 -4.23131 29868 ft 342 kts 277°
2026-05-04 16:40 40.40586 -4.29195 32004 ft 328 kts 277°
2026-05-04 16:40 40.41162 -4.34977 34126 ft 310 kts 277°
2026-05-04 16:41 40.41696 -4.40362 36221 ft 286 kts 277°
2026-05-04 16:41 40.42391 -4.47405 39071 ft 236 kts 277°
2026-05-04 16:42 40.43056 -4.53932 39691 ft 253 kts 278°
2026-05-04 16:43 40.43662 -4.58411 40425 ft 244 kts 283°
2026-05-04 16:43 40.44624 -4.62738 40327 ft 254 kts 292°
2026-05-04 16:43 40.45375 -4.64884 39908 ft 259 kts 300°
2026-05-04 16:44 40.50958 -4.70328 38818 ft 260 kts
2026-05-04 16:45 40.53747 -4.67703 38730 ft 275 kts 79°
2026-05-04 16:46 40.50376 -4.62635 36862 ft 318 kts 185°
2026-05-04 16:46 40.46462 -4.65512 37002 ft 343 kts 233°
2026-05-04 16:47 40.44774 -4.71495 37004 ft 365 kts 265°
2026-05-04 16:47 40.44990 -4.78220 36997 ft 366 kts 277°
2026-05-04 16:48 40.45531 -4.87865 34414 ft 381 kts 272°
2026-05-04 16:48 40.45817 -4.91276 33879 ft 375 kts 283°
2026-05-04 16:49 40.47625 -4.97039 34660 ft 307 kts 296°
2026-05-04 16:49 40.49220 -5.01687 34954 ft 259 kts 292°
2026-05-04 16:50 40.49865 -5.06250 33959 ft 259 kts 270°
2026-05-04 16:50 40.50106 -5.11077 32807 ft 270 kts 281°
2026-05-04 16:51 40.50195 -5.15841 32048 ft 248 kts 264°
2026-05-04 16:51 40.50113 -5.17878 32907 ft 199 kts 274°
2026-05-04 16:51 40.50343 -5.21833 33179 ft 219 kts 266°
2026-05-04 16:52 40.49950 -5.25637 33551 ft 232 kts 266°
2026-05-04 16:52 40.49963 -5.28059 32634 ft 298 kts 273°
2026-05-04 16:53 40.50415 -5.33898 30326 ft 347 kts 277°
2026-05-04 16:53 40.51451 -5.43997 28066 ft 384 kts 277°
2026-05-04 16:54 40.51788 -5.47495 28000 ft 386 kts 277°
2026-05-04 16:55 40.53054 -5.61563 27998 ft 388 kts 276°
2026-05-04 16:55 40.53666 -5.68559 27999 ft 387 kts 276°
2026-05-04 16:56 40.54280 -5.75601 27997 ft 388 kts 276°
2026-05-04 16:56 40.55194 -5.86168 28004 ft 387 kts 276°
2026-05-04 16:57 40.56096 -5.96691 27997 ft 388 kts 276°
2026-05-04 16:58 40.57290 -6.10815 27999 ft 388 kts 276°
2026-05-04 16:59 40.57880 -6.17868 27997 ft 388 kts 276°
2026-05-04 17:00 40.59038 -6.31873 27503 ft 377 kts 276°
2026-05-04 17:00 40.59872 -6.42095 25384 ft 370 kts 276°
2026-05-04 17:01 40.60410 -6.48747 24142 ft 361 kts 276°
2026-05-04 17:01 40.60903 -6.54885 22965 ft 354 kts 276°
2026-05-04 17:02 40.61251 -6.59240 22117 ft 350 kts 276°
2026-05-04 17:03 40.61503 -6.62409 21516 ft 346 kts 276°
2026-05-04 17:03 40.61749 -6.65517 20911 ft 343 kts 276°
2026-05-04 17:03 40.62251 -6.71396 19750 ft 337 kts 280°
2026-05-04 17:04 40.63284 -6.77377 18905 ft 334 kts 282°
2026-05-04 17:04 40.62514 -6.83250 19004 ft 335 kts 238°
2026-05-04 17:05 40.58811 -6.86702 19001 ft 336 kts 193°
2026-05-04 17:05 40.54228 -6.85904 19003 ft 338 kts 156°
2026-05-04 17:06 40.50891 -6.81810 19001 ft 339 kts 115°
2026-05-04 17:06 40.50332 -6.78819 18998 ft 339 kts 92°
2026-05-04 17:07 40.51885 -6.73131 18999 ft 338 kts 47°
2026-05-04 17:07 40.52429 -6.72435 19001 ft 338 kts 40°
2026-05-04 17:07 40.56020 -6.70539 18998 ft 336 kts
2026-05-04 17:07 40.58292 -6.70958 19001 ft 336 kts 340°
2026-05-04 17:08 40.60298 -6.72504 18998 ft 335 kts 318°
2026-05-04 17:08 40.62273 -6.77889 19002 ft 335 kts 273°
2026-05-04 17:08 40.62240 -6.79239 19002 ft 335 kts 263°
2026-05-04 17:09 40.61708 -6.81657 19000 ft 335 kts 244°
2026-05-04 17:09 40.60344 -6.84073 19000 ft 335 kts 222°
2026-05-04 17:09 40.58355 -6.85646 18998 ft 336 kts 200°
2026-05-04 17:10 40.53775 -6.85359 18998 ft 338 kts 155°
2026-05-04 17:10 40.49320 -6.78380 18952 ft 343 kts 121°
2026-05-04 17:11 40.48077 -6.75659 18929 ft 349 kts 122°
2026-05-04 17:11 40.47123 -6.73951 18909 ft 350 kts 132°
2026-05-04 17:11 40.42923 -6.70896 18857 ft 350 kts 168°
2026-05-04 17:12 40.40507 -6.70448 18834 ft 350 kts 177°
2026-05-04 17:12 40.35872 -6.71913 18782 ft 349 kts 213°
2026-05-04 17:13 40.33040 -6.80104 18696 ft 348 kts 278°
2026-05-04 17:14 40.36152 -6.88654 18635 ft 348 kts 300°
2026-05-04 17:14 40.37377 -6.91398 18605 ft 348 kts 300°
2026-05-04 17:14 40.39777 -6.96865 18566 ft 347 kts 299°
2026-05-04 17:15 40.40970 -6.99617 18533 ft 347 kts 299°
2026-05-04 17:15 40.43343 -7.05123 18341 ft 339 kts 299°
2026-05-04 17:16 40.45633 -7.10459 16917 ft 336 kts 299°
2026-05-04 17:16 40.49027 -7.18392 14921 ft 326 kts 299°
2026-05-04 17:17 40.50117 -7.20945 14280 ft 323 kts 299°
2026-05-04 17:17 40.53365 -7.28563 12323 ft 314 kts 299°
2026-05-04 17:18 40.54429 -7.31063 11674 ft 311 kts 299°
2026-05-04 17:18 40.56519 -7.35981 10439 ft 306 kts 299°
2026-05-04 17:19 40.58581 -7.40840 10010 ft 305 kts 299°
2026-05-04 17:19 40.60630 -7.45673 9997 ft 299 kts 299°
2026-05-04 17:20 40.62638 -7.50421 10003 ft 296 kts 299°
2026-05-04 17:20 40.64633 -7.55143 9998 ft 297 kts 299°
2026-05-04 17:20 40.65636 -7.57519 10002 ft 295 kts 299°
2026-05-04 17:21 40.67639 -7.62273 9996 ft 298 kts 298°
2026-05-04 17:21 40.69633 -7.67013 10006 ft 298 kts 298°
2026-05-04 17:22 40.70650 -7.69433 9999 ft 311 kts 298°
2026-05-04 17:22 40.71706 -7.71946 9998 ft 315 kts 298°
2026-05-04 17:23 40.74909 -7.79585 9999 ft 317 kts 298°
2026-05-04 17:23 40.75975 -7.82133 10002 ft 317 kts 298°
2026-05-04 17:23 40.78098 -7.87213 10006 ft 317 kts 298°
2026-05-04 17:24 40.79169 -7.89778 10001 ft 320 kts 298°
2026-05-04 17:24 40.82411 -7.97558 10000 ft 323 kts 298°
2026-05-04 17:25 40.83480 -8.00128 9999 ft 323 kts 298°
2026-05-04 17:25 40.85643 -8.05333 9997 ft 322 kts 298°
2026-05-04 17:26 40.87992 -8.10403 10000 ft 325 kts 309°
2026-05-04 17:26 40.93441 -8.15584 9997 ft 323 kts 330°
2026-05-04 17:27 40.97354 -8.18544 10000 ft 323 kts 330°
2026-05-04 17:27 41.01274 -8.21534 9999 ft 334 kts 329°
2026-05-04 17:28 41.05338 -8.24653 9997 ft 338 kts 329°
2026-05-04 17:29 41.11440 -8.29353 10007 ft 338 kts 329°
2026-05-04 17:29 41.17442 -8.34234 9997 ft 338 kts 316°
2026-05-04 17:30 41.18933 -8.42658 10002 ft 324 kts 249°
2026-05-04 17:31 41.15847 -8.46772 9999 ft 323 kts 202°
2026-05-04 17:31 41.09265 -8.47913 9501 ft 311 kts 179°
2026-05-04 17:32 41.04918 -8.47784 7763 ft 312 kts 179°
2026-05-04 17:33 40.98481 -8.47577 6062 ft 306 kts 179°
2026-05-04 17:33 40.96384 -8.47510 6006 ft 306 kts 179°
2026-05-04 17:34 40.89999 -8.47306 6001 ft 306 kts 179°
2026-05-04 17:34 40.87870 -8.47301 5963 ft 305 kts 186°
2026-05-04 17:35 40.83525 -8.52606 5895 ft 303 kts 255°
2026-05-04 17:35 40.82651 -8.58050 5897 ft 303 kts 259°
2026-05-04 17:35 40.82245 -8.60773 5889 ft 302 kts 259°
2026-05-04 17:36 40.81840 -8.63498 5894 ft 302 kts 259°
2026-05-04 17:36 40.81435 -8.66233 5886 ft 302 kts 260°
2026-05-04 17:36 40.81448 -8.68993 5887 ft 302 kts 282°
2026-05-04 17:36 40.82288 -8.71363 5888 ft 278 kts 308°
2026-05-04 17:37 40.83756 -8.72879 5891 ft 266 kts 336°
2026-05-04 17:37 40.85549 -8.73282 5894 ft 263 kts
2026-05-04 17:37 40.87286 -8.72586 5897 ft 262 kts 25°
2026-05-04 17:37 40.88898 -8.71470 5838 ft 256 kts 28°
2026-05-04 17:38 40.90428 -8.70345 5395 ft 255 kts 29°
2026-05-04 17:38 40.91986 -8.69190 4858 ft 257 kts 29°
2026-05-04 17:38 40.93549 -8.68030 4362 ft 257 kts 29°
2026-05-04 17:38 40.95102 -8.66878 3988 ft 255 kts 29°
2026-05-04 17:39 40.98193 -8.64583 3895 ft 255 kts 29°
2026-05-04 17:39 40.99736 -8.63437 3893 ft 255 kts 29°
2026-05-04 17:39 41.01285 -8.62286 3891 ft 255 kts 29°
2026-05-04 17:40 41.02814 -8.61149 3891 ft 255 kts 29°
2026-05-04 17:40 41.04360 -8.59999 3892 ft 255 kts 29°
2026-05-04 17:40 41.05971 -8.59010 3889 ft 254 kts 16°
2026-05-04 17:40 41.07723 -8.58670 3890 ft 254 kts
2026-05-04 17:41 41.09398 -8.58781 3810 ft 221 kts 346°
2026-05-04 17:41 41.10657 -8.59478 3484 ft 184 kts 326°
2026-05-04 17:41 41.11792 -8.60234 3045 ft 189 kts 334°
2026-05-04 17:41 41.12991 -8.61088 2787 ft 200 kts 328°
2026-05-04 17:42 41.14136 -8.62141 2564 ft 199 kts 321°
2026-05-04 17:42 41.15161 -8.63337 2342 ft 194 kts 321°
2026-05-04 17:42 41.16239 -8.64444 2199 ft 195 kts 325°
2026-05-04 17:42 41.17388 -8.65398 2052 ft 194 kts 333°
2026-05-04 17:43 41.18558 -8.66239 1867 ft 194 kts 335°
2026-05-04 17:43 41.19823 -8.66810 1566 ft 188 kts 349°
2026-05-04 17:43 41.21114 -8.67202 1076 ft 192 kts 349°
2026-05-04 17:43 41.22387 -8.67481 511 ft 172 kts 348°
2026-05-04 17:44 41.23465 -8.67815 321 ft 159 kts 354°
2026-05-04 17:44 41.24346 -8.67977 257 ft 92 kts 346°
2026-05-04 17:44 41.24690 -8.68088 249 ft 13 kts 347°
2026-05-04 17:44 41.24705 -8.68093 248 ft 4 kts 346°
2026-05-04 17:45 41.24749 -8.68175 246 ft 10 kts 259°
2026-05-04 17:45 41.24663 -8.68261 246 ft 12 kts 197°
2026-05-04 17:45 41.24618 -8.68270 247 ft 0 kts 187°